Zurück zum Katalog

STARLINK-36926

AktivKommunikationVLEO
NORAD 67999·PAYLOAD·🇺🇸 United States

Gestartet Feb 27, 2026 von Vandenberg Space Force Base

Loading…

Nächste Überflüge (nächste 24 Stunden)

TLE

AktuellSource: CelesTrak SupGP

Epoche: Sep 15, 2026, 03:30 UTC

1 67999C 26039P   26258.14631944 -.00029209  00000+0 -10577-2 0  2588
2 67999  43.0018  58.5850 0001453 269.4390  64.6577 15.27600540    11

Verfolge STARLINK-36926 in Echtzeit mit AllMySat

Download on the App Store